TimeCST,TemperatureF,Dew PointF,Humidity,Sea Level PressureIn,VisibilityMPH,Wind Direction,Wind SpeedMPH,Gust SpeedMPH,PrecipitationIn,Events,Conditions,WindDirDegrees,DateUTC
12:52 AM,39.0,28.9,67,29.93,10.0,NNE,10.4,-,N/A,,Clear,20,2012-12-07 06:52:00
1:52 AM,37.9,28.0,68,29.92,10.0,NNE,9.2,-,N/A,,Clear,20,2012-12-07 07:52:00
2:52 AM,37.9,28.0,68,29.92,10.0,NNE,6.9,-,N/A,,Clear,20,2012-12-07 08:52:00
3:52 AM,37.0,27.0,67,29.92,10.0,North,8.1,-,N/A,,Clear,10,2012-12-07 09:52:00
4:52 AM,36.0,27.0,70,29.91,10.0,North,6.9,-,N/A,,Clear,10,2012-12-07 10:52:00
5:52 AM,34.0,26.1,73,29.88,10.0,NE,9.2,-,N/A,,Clear,40,2012-12-07 11:52:00
6:52 AM,34.0,26.1,73,29.91,10.0,NNE,9.2,-,N/A,,Clear,20,2012-12-07 12:52:00
7:52 AM,35.1,28.0,76,29.91,10.0,North,3.5,-,N/A,,Overcast,10,2012-12-07 13:52:00
8:52 AM,37.9,28.9,70,29.91,10.0,North,4.6,-,N/A,,Mostly Cloudy,350,2012-12-07 14:52:00
9:52 AM,39.9,30.9,70,29.92,10.0,Calm,Calm,-,N/A,,Mostly Cloudy,0,2012-12-07 15:52:00
10:40 AM,42.8,32.0,66,29.92,10.0,NNE,5.8,-,N/A,,Overcast,20,2012-12-07 16:40:00
10:52 AM,42.1,32.0,67,29.92,9.0,NNW,5.8,-,N/A,,Overcast,340,2012-12-07 16:52:00
11:20 AM,44.6,33.8,66,29.92,10.0,NNW,4.6,-,N/A,,Overcast,330,2012-12-07 17:20:00
11:52 AM,45.0,33.1,63,29.89,10.0,North,5.8,-,N/A,,Scattered Clouds,350,2012-12-07 17:52:00
12:52 PM,46.9,34.0,61,29.87,10.0,NNW,6.9,-,N/A,,Partly Cloudy,340,2012-12-07 18:52:00
1:52 PM,48.0,35.1,61,29.84,10.0,NE,5.8,-,N/A,,Overcast,50,2012-12-07 19:52:00
2:52 PM,50.0,35.1,57,29.84,10.0,NNE,9.2,-,N/A,,Clear,20,2012-12-07 20:52:00
3:29 PM,50.0,35.6,58,29.85,10.0,NNE,6.9,-,N/A,,Mostly Cloudy,20,2012-12-07 21:29:00
3:52 PM,48.9,35.1,59,29.85,10.0,NNE,8.1,-,N/A,,Mostly Cloudy,20,2012-12-07 21:52:00
4:07 PM,48.2,35.6,62,29.86,10.0,NNE,4.6,-,N/A,,Scattered Clouds,20,2012-12-07 22:07:00
4:52 PM,46.0,33.1,61,29.88,10.0,North,11.5,-,N/A,,Mostly Cloudy,10,2012-12-07 22:52:00
5:52 PM,42.1,32.0,67,29.89,10.0,NNE,6.9,-,N/A,,Clear,20,2012-12-07 23:52:00
6:52 PM,39.0,30.9,73,29.92,10.0,NNE,3.5,-,N/A,,Partly Cloudy,30,2012-12-08 00:52:00
7:52 PM,36.0,30.0,79,29.94,10.0,Calm,Calm,-,N/A,,Mostly Cloudy,0,2012-12-08 01:52:00
8:52 PM,39.0,33.1,79,29.95,10.0,North,8.1,-,N/A,,Clear,360,2012-12-08 02:52:00
9:52 PM,39.0,33.1,79,29.96,10.0,North,5.8,-,N/A,,Scattered Clouds,10,2012-12-08 03:52:00
10:52 PM,37.0,32.0,82,29.97,9.0,North,6.9,-,N/A,,Clear,360,2012-12-08 04:52:00
11:52 PM,34.0,30.0,85,29.98,8.0,NNW,8.1,-,N/A,,Clear,340,2012-12-08 05:52:00